[[{"header":{"parameterUnit":"m.s-1","parameterCategory":1,"la1":30.2991,"la2":30.254,"lo1":-89.0895,"lo2":-89.0444,"dy":0.0017,"dx":0.0017,"nx":28,"ny":28,"refTime":"2023-09-30T21:00:00:Z","depth":0,"parameterNumber":2,"parameterNumberName":"U-component_of_WINDS"},"data":[0,0,0,0,0,0,0,0,0,0,0,0,0,0,0,0,0,0,0,0,0,0,0,0,0,0,0,0,0,0,0,0,0,0,0,0,0,0,0,0,0,0,0,0,0,0,0,0,0,0,0,0,0,0,0,0,0,0,-5.5353,-5.5353,0,-5.5326,-5.5325,-5.5325,-5.5165,-5.5162,-5.5158,-5.5154,-5.513,-5.5133,-5.5135,0,0,0,0,0,0,0,0,0,0,0,0,0,-5.5271,-5.5274,-5.5353,-5.5353,-5.5352,-5.5326,-5.5325,-5.5325,-5.5166,-5.5161,-5.5157,-5.5152,-5.5129,-5.5132,-5.5136,0,0,0,0,0,0,0,0,0,0,0,0,0,-5.5282,-5.5274,-5.5353,-5.527,-5.5262,-5.5326,-5.5325,-5.5325,-5.5167,-5.5161,-5.5155,-5.515,-5.5128,-5.5132,-5.5136,-5.5279,0,0,-5.515,-5.5152,0,0,0,0,0,0,0,0,-5.5282,-5.5285,-5.5282,-5.5276,-5.5267,-5.5243,-5.5287,-5.531,-5.5169,-5.5203,-5.5154,-5.5147,-5.5172,-5.5173,-5.518,-5.5278,-5.5277,-5.515,-5.5153,-5.5155,-5.5156,0,0,0,0,0,0,0,-5.5281,-5.5285,-5.5342,-5.5282,-5.5273,-5.5235,-5.523,-5.5291,-5.5221,-5.52,-5.5188,-5.5187,-5.5167,-5.5176,-5.5179,-5.5276,-5.515,-5.5154,-5.5157,-5.5158,-5.5492,-5.5498,0,0,0,0,0,0,-5.5291,-5.5286,-5.5343,-5.5341,-5.526,-5.5241,-5.5236,-5.5257,-5.5219,-5.5208,-5.5192,-5.518,-5.5172,-5.5174,-5.5177,-5.5343,-5.5155,-5.5159,-5.5161,-5.5486,-5.5494,-5.55,0,0,0,0,0,0,-5.529,-5.5298,-5.5344,-5.531,-5.5313,-5.5249,-5.5273,-5.5259,-5.5268,-5.5213,-5.52,-5.5214,-5.5167,-5.5171,-5.5255,-5.534,-5.5161,-5.5165,-5.5479,-5.5488,-5.5497,-5.5676,0,0,0,0,0,0,-5.5289,-5.5299,-5.5351,-5.5313,-5.5316,-5.5422,-5.5279,-5.5263,-5.5276,-5.526,-5.5231,-5.5221,-5.5163,-5.5249,-5.526,-5.5343,-5.5168,-5.5471,-5.5483,-5.5494,-5.5663,-5.5691,-5.5715,0,0,0,0,0,-5.5286,-5.5403,-5.5355,-5.5362,-5.538,-5.5427,-5.5429,-5.5359,-5.5283,-5.5336,-5.5302,-5.5222,-5.5329,-5.5259,-5.5269,-5.5356,-5.5465,-5.548,-5.5493,-5.5651,-5.5685,-5.5714,0,0,0,0,0,0,-5.5454,-5.5396,-5.5342,-5.5449,-5.5444,-5.54,-5.5464,-5.5397,-5.5414,-5.5398,-5.5312,-5.5307,-5.5405,-5.5388,-5.5311,-5.5493,-5.5384,-5.54,-5.55,-5.5532,-5.5558,-5.556,-5.5172,0,0,0,0,0,-5.5503,-5.5545,-5.5493,-5.5593,-5.5593,-5.553,-5.5548,-5.5495,-5.5486,-5.5483,-5.5454,-5.545,-5.5483,-5.5506,-5.5533,-5.5659,-5.5652,-5.5724,-5.575,-5.5772,-5.5787,-5.5855,-5.5887,-5.5546,-5.5546,-5.5546,0,0,-5.5606,-5.5579,-5.5611,-5.5626,-5.5615,-5.5663,-5.5529,-5.5584,-5.5618,-5.5492,-5.5569,-5.5549,-5.5539,-5.5645,-5.569,-5.5634,-5.588,-5.5789,-5.5807,-5.5811,-5.5873,-5.5905,-5.5934,-5.5556,-5.5554,-5.5553,0,0,-5.5816,-5.58,-5.5882,-5.5875,-5.5861,-5.5818,-5.5839,-5.5805,-5.5786,-5.5862,-5.5769,-5.581,-5.5868,-5.5865,-5.5871,-5.6084,-5.6012,-5.6095,-5.6232,-5.6298,-5.6325,-5.6349,-5.6426,-5.6455,-5.6111,-5.6111,-5.6111,0,-5.5946,-5.6011,-5.5934,-5.5995,-5.6005,-5.5892,-5.5976,-5.5973,-5.597,-5.598,-5.5917,-5.5988,-5.5974,-5.6079,-5.6131,-5.6139,-5.6161,-5.6098,-5.6327,-5.635,-5.6371,-5.6444,-5.6473,-5.6121,-5.612,-5.6119,-5.6118,0,-5.6172,-5.622,-5.6288,-5.6287,-5.6304,-5.6377,-5.6312,-5.634,-5.6286,-5.6251,-5.6332,-5.631,-5.6331,-5.6352,-5.63,-5.6451,-5.6417,-5.6342,-5.6231,-5.6415,-5.6482,-5.6509,-5.6136,-5.6132,-5.6129,-5.6127,0,0,-5.6487,-5.6443,-5.647,-5.6468,-5.6446,-5.6481,-5.655,-5.657,-5.6597,-5.6598,-5.6655,-5.6707,-5.6639,-5.6646,-5.6593,-5.6651,-5.6823,-5.6569,-5.6567,-5.6619,-5.6991,-5.7048,-5.7082,-5.6775,-5.678,-5.6784,-5.6992,0,-5.669,-5.6803,-5.6736,-5.686,-5.6904,-5.6799,-5.6858,-5.6852,-5.6822,-5.6856,-5.6822,-5.6861,-5.6766,-5.6771,-5.6824,-5.6791,-5.6897,-5.6775,-5.6829,-5.6832,-5.6836,-5.7116,-5.7177,-5.7374,-5.7018,-5.7022,-5.7025,0,-5.6942,-5.6955,-5.7083,-5.7053,-5.7069,-5.7124,-5.7139,-5.7172,-5.7163,-5.7137,-5.7147,-5.708,-5.7147,-5.7037,-5.7129,-5.7047,-5.7065,-5.7053,-5.7059,-5.7062,-5.6941,-5.7129,-5.7435,-5.7466,-5.7066,-5.7063,-5.706,0,-5.7161,-5.721,-5.7293,-5.7296,-5.7263,-5.7304,-5.7293,-5.7278,-5.7296,-5.7309,-5.732,-5.7341,-5.7353,-5.7372,-5.7314,-5.7239,-5.7415,-5.7299,-5.7397,-5.7399,-5.7439,-5.7438,-5.7755,-5.745,-5.7449,-5.7449,-5.7448,0,-5.7396,-5.7479,-5.7392,-5.7443,-5.7534,-5.7457,-5.7549,-5.7527,-5.7515,-5.7562,-5.7472,-5.7518,-5.7437,-5.7476,-5.7431,-5.7515,-5.7521,-5.7503,-5.7491,-5.7512,-5.7515,-5.7524,-5.7509,-5.7456,-5.7455,-5.7453,-5.7452,0,-5.7656,-5.76,-5.7685,-5.7647,-5.764,-5.7709,-5.7677,-5.7724,-5.7688,-5.7748,-5.7758,-5.7702,-5.7743,-5.7686,-5.7721,-5.7691,-5.7808,-5.7774,-5.7811,-5.7801,-5.7903,-5.7895,-5.8237,-5.8279,-5.7947,-5.795,-5.7953,0,-5.7809,-5.7871,-5.784,-5.7865,-5.7858,-5.7899,-5.7916,-5.7843,-5.7865,-5.7862,-5.791,-5.7943,-5.7966,-5.8037,-5.8,-5.8028,-5.7994,-5.8113,-5.7998,-5.8018,-5.7998,-5.7996,-5.8003,-5.8137,-5.8141,-5.8144,-5.8146,0,-5.8089,-5.8059,-5.8087,-5.8106,-5.813,-5.8141,-5.8147,-5.8172,-5.8096,-5.8126,-5.8166,-5.8184,-5.8221,-5.8256,-5.8274,-5.8263,-5.8194,-5.8183,-5.8207,-5.823,-5.825,-5.8243,-5.7876,-5.8175,-5.8172,-5.817,-5.8169,-5.8168,-5.8301,-5.8352,-5.8338,-5.8373,-5.837,-5.8377,-5.842,-5.839,-5.8422,-5.8445,-5.8401,-5.8453,-5.8445,-5.8462,-5.846,-5.8501,-5.845,-5.8485,-5.8494,-5.8504,-5.852,-5.8243,-5.8504,-5.8503,-5.8502,-5.8501,-5.8501,0,-5.8577,-5.8564,-5.8596,-5.8607,-5.8635,-5.8566,-5.8569,-5.8598,-5.8645,-5.8642,-5.8667,-5.8715,-5.8749,-5.8716,-5.8744,-5.8784,-5.8753,-5.8794,-5.8791,-5.879,-5.8563,-5.854,-5.8819,-5.8818,-5.8818,-5.8818,-5.8818,-5.8818,-5.8724,-5.8807,-5.8776,-5.8857,-5.8842,-5.8892,-5.89,-5.8908,-5.8906,-5.8963,-5.8991,-5.8969,-5.8955,-5.8982,-5.9011,-5.9,-5.9016,-5.9069,-5.9048,-5.8837,-5.8806,-5.8776,-5.8754,-5.9072,-5.9073,-5.927,-5.9272,-5.9274]},{"header":{"parameterUnit":"m.s-1","parameterCategory":1,"la1":30.2991,"la2":30.254,"lo1":-89.0895,"lo2":-89.0444,"dy":0.0017,"dx":0.0017,"nx":28,"ny":28,"refTime":"2023-09-30T21:00:00:Z","depth":0,"parameterNumber":3,"parameterNumberName":"V-component_of_WINDS"},"data":[0,0,0,0,0,0,0,0,0,0,0,0,0,0,0,0,0,0,0,0,0,0,0,0,0,0,0,0,0,0,0,0,0,0,0,0,0,0,0,0,0,0,0,0,0,0,0,0,0,0,0,0,0,0,0,0,0,0,-0.7208,-0.7208,0,-0.7227,-0.7227,-0.7227,-0.7193,-0.7192,-0.7191,-0.719,-0.7212,-0.7214,-0.7216,0,0,0,0,0,0,0,0,0,0,0,0,0,-0.7143,-0.7144,-0.7208,-0.7208,-0.7208,-0.7227,-0.7227,-0.7227,-0.7193,-0.7192,-0.719,-0.7189,-0.7212,-0.7214,-0.7216,0,0,0,0,0,0,0,0,0,0,0,0,0,-0.7168,-0.7145,-0.7208,-0.7193,-0.7192,-0.7227,-0.7227,-0.7228,-0.7194,-0.7192,-0.719,-0.7188,-0.7211,-0.7214,-0.7216,-0.7267,0,0,-0.7224,-0.7225,0,0,0,0,0,0,0,0,-0.7166,-0.717,-0.7195,-0.7194,-0.7193,-0.7206,-0.7213,-0.7241,-0.7194,-0.7193,-0.719,-0.7188,-0.7212,-0.7214,-0.7222,-0.7268,-0.7269,-0.7224,-0.7226,-0.7227,-0.7228,0,0,0,0,0,0,0,-0.7165,-0.7169,-0.7215,-0.7196,-0.7194,-0.7186,-0.7188,-0.7218,-0.7212,-0.7193,-0.7191,-0.7193,-0.7211,-0.7219,-0.7222,-0.7269,-0.7224,-0.7226,-0.7228,-0.7229,-0.7358,-0.736,0,0,0,0,0,0,-0.7164,-0.7168,-0.7215,-0.7216,-0.7175,-0.7189,-0.7191,-0.7204,-0.7212,-0.7211,-0.7195,-0.7192,-0.7216,-0.7219,-0.7223,-0.7283,-0.7227,-0.7229,-0.7231,-0.7356,-0.7358,-0.736,0,0,0,0,0,0,-0.7163,-0.7169,-0.7214,-0.7191,-0.7196,-0.7192,-0.7207,-0.7205,-0.7213,-0.7213,-0.7212,-0.7204,-0.7215,-0.7219,-0.7256,-0.7284,-0.723,-0.7233,-0.7354,-0.7357,-0.7359,-0.7405,0,0,0,0,0,0,-0.7161,-0.7169,-0.7188,-0.7192,-0.7198,-0.7247,-0.7208,-0.7206,-0.7217,-0.7213,-0.7222,-0.7221,-0.7214,-0.7252,-0.7258,-0.7286,-0.7235,-0.7351,-0.7355,-0.7358,-0.7401,-0.7409,-0.7416,0,0,0,0,0,-0.7159,-0.72,-0.7189,-0.7195,-0.7221,-0.7248,-0.7252,-0.7241,-0.722,-0.7239,-0.7239,-0.7221,-0.7279,-0.7256,-0.7263,-0.7292,-0.735,-0.7354,-0.7358,-0.7398,-0.7407,-0.7415,0,0,0,0,0,0,-0.7201,-0.7201,-0.7188,-0.7231,-0.724,-0.7242,-0.7267,-0.7252,-0.7268,-0.7263,-0.725,-0.7252,-0.7292,-0.7295,-0.727,-0.7341,-0.7311,-0.7317,-0.7338,-0.7348,-0.7355,-0.7355,-0.7237,0,0,0,0,0,-0.7215,-0.7236,-0.7235,-0.7273,-0.7278,-0.7271,-0.7283,-0.7274,-0.7283,-0.7287,-0.7289,-0.7299,-0.7319,-0.7333,-0.7352,-0.74,-0.7402,-0.7423,-0.743,-0.7436,-0.7443,-0.7469,-0.7479,-0.7374,-0.7374,-0.7374,0,0,-0.7244,-0.7247,-0.7261,-0.7282,-0.7287,-0.7311,-0.7275,-0.7301,-0.7319,-0.7291,-0.7326,-0.7328,-0.7338,-0.7381,-0.74,-0.7385,-0.7471,-0.7442,-0.7447,-0.745,-0.7475,-0.7485,-0.7493,-0.7377,-0.7377,-0.7376,0,0,-0.7311,-0.7314,-0.7347,-0.7353,-0.7361,-0.7356,-0.7364,-0.7368,-0.7368,-0.7402,-0.7382,-0.7402,-0.7438,-0.7446,-0.7455,-0.7522,-0.7507,-0.7528,-0.7569,-0.7595,-0.7603,-0.761,-0.7636,-0.7645,-0.7534,-0.7534,-0.7534,0,-0.7348,-0.7381,-0.7366,-0.7393,-0.7403,-0.7377,-0.7411,-0.7417,-0.7432,-0.744,-0.7421,-0.7465,-0.747,-0.7515,-0.7531,-0.7538,-0.7548,-0.7529,-0.7603,-0.761,-0.7616,-0.7641,-0.765,-0.7537,-0.7536,-0.7536,-0.7536,0,-0.7426,-0.7449,-0.7475,-0.7488,-0.7501,-0.7531,-0.7521,-0.7535,-0.7524,-0.7522,-0.7557,-0.7561,-0.7581,-0.759,-0.758,-0.7634,-0.7624,-0.7604,-0.7574,-0.7629,-0.7652,-0.7661,-0.7541,-0.754,-0.7539,-0.7538,0,0,-0.7523,-0.7526,-0.7536,-0.7541,-0.7548,-0.7566,-0.7595,-0.7612,-0.7626,-0.7635,-0.7661,-0.769,-0.7671,-0.7681,-0.7671,-0.7694,-0.7749,-0.7672,-0.7672,-0.7688,-0.781,-0.7826,-0.7838,-0.7737,-0.7739,-0.774,-0.781,0,-0.759,-0.764,-0.7626,-0.7676,-0.7698,-0.7672,-0.7697,-0.7704,-0.7702,-0.772,-0.7717,-0.7739,-0.7712,-0.7718,-0.7739,-0.7738,-0.7774,-0.7732,-0.7762,-0.7764,-0.7764,-0.7849,-0.7867,-0.7932,-0.7818,-0.782,-0.7821,0,-0.7677,-0.7689,-0.7741,-0.7743,-0.7751,-0.7775,-0.7789,-0.7807,-0.7814,-0.781,-0.7821,-0.7806,-0.7835,-0.7802,-0.7842,-0.7815,-0.7826,-0.7827,-0.7829,-0.7834,-0.7798,-0.7859,-0.7953,-0.7964,-0.7834,-0.7833,-0.7832,0,-0.7744,-0.7774,-0.7809,-0.7814,-0.7817,-0.7834,-0.7836,-0.7841,-0.7852,-0.7865,-0.7872,-0.7889,-0.7898,-0.7912,-0.7902,-0.7878,-0.7945,-0.791,-0.7944,-0.7945,-0.7962,-0.7962,-0.8062,-0.7965,-0.7964,-0.7964,-0.7964,0,-0.7823,-0.7856,-0.7839,-0.7861,-0.7897,-0.7881,-0.7918,-0.7917,-0.7921,-0.7943,-0.7921,-0.7942,-0.7926,-0.7946,-0.7938,-0.7974,-0.7978,-0.7977,-0.7975,-0.7981,-0.7981,-0.799,-0.7986,-0.7967,-0.7966,-0.7966,-0.7965,0,-0.7907,-0.7896,-0.7933,-0.7931,-0.7932,-0.7959,-0.7958,-0.7979,-0.7973,-0.8001,-0.8007,-0.7999,-0.8021,-0.8011,-0.8035,-0.8029,-0.8076,-0.8066,-0.8074,-0.8072,-0.8107,-0.8105,-0.8219,-0.8234,-0.8125,-0.8126,-0.8127,0,-0.7959,-0.7984,-0.7985,-0.7997,-0.8,-0.8021,-0.8032,-0.8016,-0.8028,-0.8037,-0.8057,-0.8076,-0.8092,-0.8128,-0.8125,-0.8143,-0.8136,-0.8174,-0.8138,-0.8143,-0.8139,-0.8139,-0.8142,-0.8182,-0.8184,-0.8185,-0.8186,0,-0.8054,-0.8047,-0.8063,-0.8078,-0.8091,-0.8102,-0.8111,-0.8122,-0.8106,-0.8121,-0.8143,-0.8155,-0.8178,-0.8198,-0.8213,-0.8216,-0.8199,-0.8196,-0.8205,-0.8213,-0.8217,-0.8217,-0.8096,-0.8195,-0.8194,-0.8193,-0.8193,-0.8192,-0.8125,-0.8146,-0.815,-0.8169,-0.8173,-0.8182,-0.8201,-0.8197,-0.8214,-0.8231,-0.822,-0.8246,-0.8252,-0.827,-0.8275,-0.8296,-0.8281,-0.8293,-0.8297,-0.8301,-0.8307,-0.8211,-0.8298,-0.8298,-0.8297,-0.8297,-0.8297,0,-0.8221,-0.8221,-0.8238,-0.8251,-0.8266,-0.8245,-0.8254,-0.8268,-0.8291,-0.8297,-0.8311,-0.8336,-0.8355,-0.8353,-0.837,-0.8387,-0.838,-0.8393,-0.8393,-0.8394,-0.8318,-0.831,-0.8399,-0.8399,-0.8398,-0.8398,-0.8398,-0.8398,-0.8272,-0.8307,-0.83,-0.8337,-0.8337,-0.8362,-0.8368,-0.8376,-0.8381,-0.8409,-0.8425,-0.8422,-0.8425,-0.8442,-0.8459,-0.8458,-0.8467,-0.8483,-0.8479,-0.8409,-0.8399,-0.839,-0.8382,-0.8484,-0.8485,-0.8554,-0.8554,-0.8555]}]]